Theta_e
286 286 286 286 286 285 285 286 287 287 287 287 287 287 288 288 289 289 289 288 288 288
284 284 284 284 284 284 284 285 286 285 285 286 286 286 286 286 286 287 288 288 288 288
283 283 283 283 283 283 283 284 284 284 285 285 285 285 285 285 286 285 286 287 287 287
283 283 283 283 283 283 283 283 283 283 283 283 283 284 284 284 284 284 284 285 285 285
283 282 282 282 283 283 283 283 283 283 283 283 282 283 282 282 283 282 282 283 283 284
281 281 281 282 282 283 282 283 283 282 282 282 282 282 282 282 282 282 282 282 282 283
281 281 281 282 282 282 282 282 282 282 282 282 282 282 282 281 281 281 282 282 283 283
281 281 280 280 281 281 281 281 281 281 282 281 281 281 281 282 282 281 282 282 282 283
275 276 276 278 279 279 279 279 280 280 280 280 281 283 284 284 283 282 281 281 282 282
272 272 273 274 276 276 278 278 278 278 279 278 279 282 283 284 283 281 281 280 280 280
272 272 273 273 275 275 277 276 276 277 277 277 278 282 283 283 282 281 280 280 280 279
273 272 273 274 275 276 275 276 276 276 276 276 276 280 282 282 281 279 278 279 279 279
275 274 273 275 275 276 276 276 276 276 276 276 276 279 281 281 279 277 278 278 279 280
275 275 275 276 275 275 274 274 273 274 274 274 274 275 279 281 279 278 277 277 278 280
Wind_Speed
4 2 2 2 1 1 1 2 4 5 4 5 5 5 5 4 4 5 6 9 8 6
3 3 2 1 1 0 1 2 3 4 5 5 6 5 5 4 6 5 6 7 8 7
2 2 2 2 1 1 1 2 3 4 4 6 6 6 6 5 6 6 6 5 7 7
2 2 2 2 2 2 2 2 3 3 4 5 5 5 6 7 8 7 8 8 8 10
3 3 3 3 3 3 4 3 4 4 5 5 5 6 5 7 7 8 9 10 9 11
4 4 5 4 4 4 4 5 4 4 5 6 7 7 7 7 8 8 9 10 11 12
6 5 4 4 4 5 4 6 6 6 7 7 7 8 9 8 9 9 9 10 11 12
6 4 4 5 5 5 5 6 6 7 7 8 8 7 8 9 9 10 11 11 11 12
5 4 6 6 5 5 6 5 6 6 7 8 7 14 16 14 9 9 9 11 12 12
5 6 6 5 5 6 6 5 6 7 7 9 9 17 18 18 9 8 10 12 12 11
6 7 6 5 7 7 5 7 7 7 8 8 9 19 19 19 10 9 10 12 12 12
6 6 6 7 8 7 5 6 7 7 8 9 10 18 19 16 9 9 11 10 12 12
5 6 7 7 7 5 4 7 6 8 8 10 12 18 21 17 7 9 9 11 12 17
6 6 6 6 4 6 7 7 7 10 9 10 11 12 20 20 10 8 9 10 9 9
Wind_Direction
71 74 86 96 95 44 355 336 336 344 346 343 340 337 326 306 292 272 262 262 248 252
113 115 117 86 49 359 319 315 344 335 330 330 327 325 320 309 303 294 282 273 270 258
168 166 171 189 202 240 293 317 324 321 319 320 319 320 317 309 303 300 290 276 269 267
210 209 220 239 247 261 261 273 290 302 305 305 307 307 305 302 300 294 294 290 279 273
230 229 237 236 237 244 271 269 272 284 291 296 300 301 298 300 296 291 292 290 287 277
226 229 236 242 246 249 261 274 266 269 282 293 301 304 302 289 290 286 281 284 284 282
221 222 232 254 262 265 262 274 285 281 276 276 279 282 287 290 287 284 282 279 278 281
228 223 234 243 246 252 250 245 243 255 256 254 252 260 261 263 271 275 281 285 282 281
244 234 236 244 246 252 255 249 249 252 255 265 262 269 277 283 277 274 272 278 277 273
243 242 241 245 256 258 257 256 255 257 256 259 263 277 282 284 278 269 268 268 271 278
233 239 246 242 248 254 243 241 252 256 254 257 263 276 284 287 281 269 263 263 267 264
217 240 243 245 250 250 244 255 251 248 258 257 264 276 283 287 279 272 269 272 267 262
223 225 235 241 251 253 235 261 263 266 255 256 267 279 287 288 276 273 279 280 274 261
228 231 231 248 234 253 255 259 254 262 265 260 257 270 281 284 280 272 277 279 275 273